EDT,Max TemperatureF,Mean TemperatureF,Min TemperatureF,Max Dew PointF,MeanDew PointF,Min DewpointF,Max Humidity, Mean Humidity, Min Humidity, Max Sea Level PressureIn, Mean Sea Level PressureIn, Min Sea Level PressureIn, Max VisibilityMiles, Mean VisibilityMiles, Min VisibilityMiles, Max Wind SpeedMPH, Mean Wind SpeedMPH, Max Gust SpeedMPH,PrecipitationIn, CloudCover, Events, WindDirDegrees
2013-5-1,68,44,43,40,36,31,80,61,25,30.42,30.38,30.32,,,,14,6,,0.00,0,,44
2013-5-2,70,54,41,43,39,34,76,55,35,30.46,30.44,30.42,,,,8,2,,0.00,0,,90
2013-5-3,66,,66,35,35,35,32,32,32,30.42,30.42,30.42,,,,14,14,25,0.00,0,,80
2013-5-4,73,58,44,46,41,37,89,56,28,30.37,30.29,30.25,,,,15,5,38,0.00,1,,83
2013-5-5,55,55,42,43,39,37,89,65,36,30.28,30.25,30.23,,,,15,5,23,0.00,4,,67
2013-5-6,61,62,53,52,47,44,72,61,43,30.26,30.19,30.15,,,,14,7,23,0.00,7,,76
2013-5-7,77,66,55,58,53,48,80,63,48,30.16,30.11,30.07,,,,13,7,16,0.00,7,Rain,74
2013-5-8,68,75,64,63,58,52,80,65,31,30.07,30.00,29.94,,,,21,10,25,0.00,6,Rain,108
2013-5-9,59,70,59,57,55,52,83,63,38,29.99,29.93,29.90,,,,15,5,21,0.00,6,Rain,266
2013-5-10,96,75,55,59,54,48,87,54,22,30.00,29.96,29.90,,,,13,3,17,0.00,1,,204
2013-5-11,73,76,66,66,63,56,83,67,48,29.92,29.79,29.70,,,,16,7,21,0.00,7,Rain-Thunderstorm,206
2013-5-12,46,68,53,65,46,26,73,46,19,29.95,29.76,29.69,,,,23,10,31,0.00,3,Rain-Thunderstorm,285
2013-5-13,45,52,39,35,29,21,77,43,21,30.10,30.03,29.96,,,,20,6,26,0.00,2,,300
2013-5-14,46,54,37,34,29,23,76,42,16,30.14,30.10,30.04,,,,12,5,18,0.00,0,,291
2013-5-15,66,65,46,58,49,31,73,48,34,30.09,29.90,29.70,,,,17,5,24,0.00,3,,184
2013-5-16,64,75,59,61,57,51,87,57,31,29.86,29.77,29.70,,,,10,3,,0.00,2,Rain-Thunderstorm,240
2013-5-17,53,68,54,60,44,38,80,42,21,30.18,30.04,29.84,,,,12,4,21,0.00,1,,310
2013-5-18,64,64,52,56,51,45,83,63,42,30.30,30.27,30.19,,,,13,3,,0.00,7,Rain,122
2013-5-19,64,68,64,61,57,54,87,72,66,30.29,30.24,30.17,,,,13,8,18,0.00,8,Rain,124
2013-5-20,78,78,64,70,65,60,90,68,45,30.17,30.06,29.98,,,,9,2,,0.00,7,,246
2013-5-21,79,82,69,68,66,63,84,58,38,29.99,29.94,29.86,,,,13,5,28,0.00,4,,234
2013-5-22,81,88,78,72,69,66,71,58,39,29.92,29.88,29.83,,,,14,6,16,0.00,5,,223
2013-5-23,75,84,77,70,67,64,69,59,44,29.91,29.86,29.78,,,,24,11,31,0.00,6,Rain-Thunderstorm,202
2013-5-24,51,64,51,66,54,41,83,70,58,29.98,29.82,29.71,,,,16,7,30,0.00,8,Rain,293
2013-5-25,57,58,51,43,39,32,71,51,32,30.03,29.96,29.94,,,,21,13,37,0.00,7,Rain,307
2013-5-26,45,66,50,38,35,31,63,36,19,30.19,30.06,30.00,,,,23,12,33,0.00,0,,297
2013-5-27,61,62,39,45,37,30,82,44,16,30.25,30.21,30.14,,,,14,3,18,0.00,0,,260
2013-5-28,63,65,51,63,55,45,87,67,35,30.22,30.18,30.12,,,,13,2,17,0.00,5,Rain,140
2013-5-29,84,80,61,69,63,58,90,55,30,30.12,30.07,30.03,,,,13,5,21,0.00,1,,245
2013-5-30,82,90,77,68,64,59,66,44,25,30.14,30.11,30.07,,,,12,7,18,0.00,0,,259
2013-5-31,82,90,73,68,63,52,81,44,17,30.14,30.08,30.01,,,,13,5,23,0.00,0,,235